| time (UTC) | temp F | wind direction | speed MPH | gust MPH | rain 1hr in | rain 24hr in | rain mn in | humidity % | barometer mb |
| 20260504173055 | 58 | 355 | 3.0 | 9.0 | 0.00 | 0.00 | 0.00 | 45 | 1013.2 |
| 20260504172558 | 58 | 286 | 3.0 | 6.0 | 0.00 | 0.00 | 0.00 | 43 | 1013.2 |
| 20260504172057 | 58 | 11 | 2.0 | 7.0 | 0.00 | 0.00 | 0.00 | 43 | 1013.1 |
| 20260504171556 | 57 | 314 | 3.0 | 7.0 | 0.00 | 0.00 | 0.00 | 43 | 1013.0 |
| 20260504171058 | 57 | 298 | 2.0 | 7.0 | 0.00 | 0.00 | 0.00 | 44 | 1013.0 |
| 20260504170558 | 58 | 286 | 2.0 | 7.0 | 0.00 | 0.00 | 0.00 | 43 | 1013.2 |
| 20260504151059 | 48 | 0 | 0.0 | 2.0 | 0.00 | 0.00 | 0.00 | 64 | 1014.3 |
| 20260504150558 | 47 | 52 | 0.0 | 3.0 | 0.00 | 0.00 | 0.00 | 67 | 1014.3 |
| 20260504141057 | 42 | 0 | 0.0 | 0.0 | 0.00 | 0.00 | 0.00 | 75 | 1014.4 |
| 20260504140557 | 41 | 0 | 0.0 | 0.0 | 0.00 | 0.00 | 0.00 | 79 | 1014.4 |
| 20260504130559 | 34 | 181 | 1.0 | 1.0 | 0.00 | 0.00 | 0.00 | 84 | 1014.3 |
| 20260504120108 | 34 | 196 | 0.0 | 2.0 | 0.00 | 0.00 | 0.00 | 86 | 1014.4 |
| 20260504110557 | 35 | 184 | 0.0 | 3.0 | 0.00 | 0.00 | 0.00 | 81 | 1014.6 |
| 20260504100557 | 37 | 0 | 0.0 | 1.0 | 0.00 | 0.00 | 0.00 | 78 | 1014.9 |
| 20260504100116 | 37 | 0 | 0.0 | 1.0 | 0.00 | 0.00 | 0.00 | 78 | 1015.0 |
| 20260504081608 | 38 | 172 | 0.0 | 0.0 | 0.00 | 0.00 | 0.00 | 74 | 1015.3 |
| 20260504081058 | 39 | 0 | 0.0 | 1.0 | 0.00 | 0.00 | 0.00 | 74 | 1015.2 |
| 20260504080558 | 39 | 0 | 0.0 | 2.0 | 0.00 | 0.00 | 0.00 | 74 | 1015.2 |
| 20260504060107 | 40 | 195 | 0.0 | 2.0 | 0.00 | 0.00 | 0.00 | 72 | 1015.9 |
| 20260504050558 | 39 | 0 | 0.0 | 1.0 | 0.00 | 0.00 | 0.00 | 75 | 1016.3 |
| 20260504050110 | 40 | 0 | 0.0 | 2.0 | 0.00 | 0.00 | 0.00 | 74 | 1016.2 |
| 20260504045557 | 40 | 0 | 0.0 | 2.0 | 0.00 | 0.00 | 0.00 | 73 | 1016.3 |
| 20260504045057 | 41 | 0 | 0.0 | 2.0 | 0.00 | 0.00 | 0.00 | 73 | 1016.1 |
| 20260504044626 | 42 | 167 | 0.0 | 1.0 | 0.00 | 0.00 | 0.00 | 74 | 1016.2 |
| 20260504044057 | 42 | 0 | 0.0 | 2.0 | 0.00 | 0.00 | 0.00 | 74 | 1016.1 |
| 20260504043600 | 42 | 136 | 1.0 | 3.0 | 0.00 | 0.00 | 0.00 | 74 | 1016.1 |
| 20260504043102 | 42 | 101 | 1.0 | 3.0 | 0.00 | 0.00 | 0.00 | 75 | 1016.0 |
| 20260504042559 | 42 | 113 | 0.0 | 2.0 | 0.00 | 0.00 | 0.00 | 74 | 1016.0 |
| 20260504042102 | 42 | 103 | 1.0 | 2.0 | 0.00 | 0.00 | 0.00 | 73 | 1016.0 |
| 20260504041559 | 42 | 0 | 0.0 | 1.0 | 0.00 | 0.00 | 0.00 | 72 | 1015.9 |
| 20260504041058 | 42 | 0 | 0.0 | 1.0 | 0.00 | 0.00 | 0.00 | 72 | 1015.9 |
| 20260504040557 | 43 | 0 | 0.0 | 1.0 | 0.00 | 0.00 | 0.00 | 70 | 1016.1 |
| 20260504040104 | 43 | 217 | 0.0 | 1.0 | 0.00 | 0.00 | 0.00 | 70 | 1016.2 |
| 20260504035558 | 44 | 165 | 0.0 | 1.0 | 0.00 | 0.00 | 0.00 | 70 | 1016.1 |
| 20260504035058 | 44 | 0 | 0.0 | 1.0 | 0.00 | 0.00 | 0.00 | 69 | 1016.1 |
| 20260504034617 | 44 | 0 | 0.0 | 3.0 | 0.00 | 0.00 | 0.00 | 68 | 1016.1 |
| 20260504034100 | 44 | 0 | 0.0 | 3.0 | 0.00 | 0.00 | 0.00 | 66 | 1015.9 |
| 20260504033557 | 45 | 149 | 2.0 | 3.0 | 0.00 | 0.00 | 0.00 | 66 | 1015.9 |
| 20260504033104 | 45 | 0 | 0.0 | 4.0 | 0.00 | 0.00 | 0.00 | 66 | 1015.8 |
| 20260504032557 | 45 | 0 | 1.0 | 4.0 | 0.00 | 0.00 | 0.00 | 65 | 1015.8 |
| 20260504032057 | 45 | 0 | 0.0 | 2.0 | 0.00 | 0.00 | 0.00 | 64 | 1015.7 |
| 20260504031604 | 45 | 0 | 0.0 | 2.0 | 0.00 | 0.00 | 0.00 | 63 | 1015.5 |
| 20260504031101 | 46 | 0 | 0.0 | 1.0 | 0.00 | 0.00 | 0.00 | 64 | 1015.5 |
| 20260504030558 | 46 | 0 | 0.0 | 1.0 | 0.00 | 0.00 | 0.00 | 64 | 1015.4 |
| 20260504030058 | 46 | 0 | 0.0 | 2.0 | 0.00 | 0.00 | 0.00 | 64 | 1015.4 |
| 20260504025557 | 46 | 0 | 0.0 | 2.0 | 0.00 | 0.00 | 0.00 | 64 | 1015.3 |
| 20260504025057 | 46 | 15 | 0.0 | 2.0 | 0.00 | 0.00 | 0.00 | 64 | 1015.2 |
| 20260504024600 | 46 | 53 | 0.0 | 2.0 | 0.00 | 0.00 | 0.00 | 64 | 1015.2 |
| 20260504024056 | 46 | 0 | 0.0 | 5.0 | 0.00 | 0.00 | 0.00 | 64 | 1015.1 |
| 20260504023557 | 46 | 0 | 1.0 | 5.0 | 0.00 | 0.00 | 0.00 | 65 | 1014.9 |
| 20260504023058 | 46 | 48 | 0.0 | 5.0 | 0.00 | 0.00 | 0.00 | 65 | 1014.9 |
| 20260504022557 | 46 | 64 | 3.0 | 5.0 | 0.00 | 0.00 | 0.00 | 64 | 1014.7 |
| 20260504022057 | 47 | 41 | 0.0 | 2.0 | 0.00 | 0.00 | 0.00 | 62 | 1014.6 |
| 20260504021557 | 48 | 68 | 0.0 | 2.0 | 0.00 | 0.00 | 0.00 | 59 | 1014.7 |
| 20260504021055 | 48 | 0 | 0.0 | 2.0 | 0.00 | 0.00 | 0.00 | 57 | 1014.7 |
| 20260504020555 | 49 | 199 | 0.0 | 2.0 | 0.00 | 0.00 | 0.00 | 55 | 1014.7 |
| 20260504020104 | 49 | 0 | 0.0 | 1.0 | 0.00 | 0.00 | 0.00 | 54 | 1014.7 |
| 20260504015557 | 50 | 248 | 0.0 | 3.0 | 0.00 | 0.00 | 0.00 | 55 | 1014.7 |
| 20260504015058 | 50 | 302 | 0.0 | 5.0 | 0.00 | 0.00 | 0.00 | 55 | 1014.6 |
| 20260504014605 | 50 | 298 | 1.0 | 6.0 | 0.00 | 0.00 | 0.00 | 54 | 1014.6 |
| 20260504014058 | 51 | 282 | 2.0 | 6.0 | 0.00 | 0.00 | 0.00 | 52 | 1014.4 |
| 20260504013558 | 51 | 127 | 1.0 | 6.0 | 0.00 | 0.00 | 0.00 | 48 | 1014.4 |
| 20260504013106 | 51 | 250 | 1.0 | 5.0 | 0.00 | 0.00 | 0.00 | 44 | 1014.4 |
| 20260504012559 | 52 | 23 | 2.0 | 5.0 | 0.00 | 0.00 | 0.00 | 45 | 1014.3 |
| 20260504012058 | 52 | 290 | 2.0 | 10.0 | 0.00 | 0.00 | 0.00 | 45 | 1014.2 |
| 20260504011600 | 52 | 299 | 4.0 | 10.0 | 0.00 | 0.00 | 0.00 | 43 | 1014.2 |
| 20260504011100 | 52 | 42 | 1.0 | 7.0 | 0.00 | 0.00 | 0.00 | 42 | 1014.2 |
| 20260504010557 | 52 | 307 | 0.0 | 14.0 | 0.00 | 0.00 | 0.00 | 43 | 1014.2 |
| 20260504010059 | 51 | 87 | 3.0 | 18.0 | 0.00 | 0.00 | 0.00 | 43 | 1014.1 |
| 20260504005559 | 51 | 127 | 6.0 | 18.0 | 0.00 | 0.00 | 0.00 | 45 | 1014.0 |
| 20260504005100 | 51 | 167 | 8.0 | 18.0 | 0.00 | 0.00 | 0.00 | 46 | 1014.2 |
| 20260504004606 | 51 | 179 | 8.0 | 17.0 | 0.00 | 0.00 | 0.00 | 47 | 1014.5 |
| 20260504004059 | 51 | 237 | 6.0 | 17.0 | 0.00 | 0.00 | 0.00 | 46 | 1014.4 |
| 20260504003559 | 50 | 219 | 4.0 | 10.0 | 0.00 | 0.00 | 0.00 | 48 | 1014.4 |
| 20260504003058 | 49 | 242 | 2.0 | 11.0 | 0.00 | 0.00 | 0.00 | 52 | 1014.2 |
| 20260504002605 | 48 | 130 | 3.0 | 11.0 | 0.00 | 0.00 | 0.00 | 57 | 1014.4 |
| 20260504002100 | 48 | 159 | 2.0 | 17.0 | 0.00 | 0.00 | 0.00 | 58 | 1014.5 |
| 20260504001602 | 49 | 159 | 5.0 | 17.0 | 0.00 | 0.00 | 0.00 | 56 | 1014.8 |
| 20260504001058 | 49 | 168 | 7.0 | 17.0 | 0.00 | 0.00 | 0.00 | 54 | 1014.9 |
| 20260504000559 | 49 | 246 | 5.0 | 14.0 | 0.00 | 0.00 | 0.00 | 56 | 1014.8 |
| 20260503235600 | 50 | 266 | 6.0 | 22.0 | 0.00 | 0.00 | 0.00 | 51 | 1014.7 |
| 20260503235058 | 51 | 185 | 8.0 | 22.0 | 0.00 | 0.00 | 0.00 | 47 | 1015.1 |
| 20260503234558 | 52 | 188 | 11.0 | 20.0 | 0.00 | 0.00 | 0.00 | 43 | 1014.8 |
| 20260503234058 | 53 | 162 | 6.0 | 14.0 | 0.00 | 0.00 | 0.00 | 42 | 1014.8 |
| 20260503233600 | 53 | 154 | 3.0 | 12.0 | 0.00 | 0.00 | 0.00 | 41 | 1014.7 |
| 20260503233058 | 53 | 210 | 1.0 | 9.0 | 0.00 | 0.00 | 0.00 | 43 | 1014.6 |
| 20260503232558 | 53 | 256 | 2.0 | 9.0 | 0.00 | 0.00 | 0.00 | 40 | 1014.6 |
| 20260503232058 | 53 | 311 | 3.0 | 12.0 | 0.00 | 0.00 | 0.00 | 43 | 1014.5 |
| 20260503231607 | 54 | 327 | 6.0 | 12.0 | 0.00 | 0.00 | 0.00 | 43 | 1014.5 |
| 20260503231059 | 55 | 324 | 1.0 | 5.0 | 0.00 | 0.00 | 0.00 | 44 | 1014.8 |
| 20260503230559 | 56 | 358 | 2.0 | 5.0 | 0.00 | 0.00 | 0.00 | 39 | 1014.9 |
| 20260503230116 | 57 | 76 | 1.0 | 4.0 | 0.00 | 0.00 | 0.00 | 38 | 1014.6 |
| 20260503225558 | 58 | 328 | 2.0 | 4.0 | 0.00 | 0.00 | 0.00 | 35 | 1014.5 |
| 20260503225058 | 58 | 352 | 0.0 | 4.0 | 0.00 | 0.00 | 0.00 | 36 | 1014.4 |
| 20260503224603 | 58 | 238 | 0.0 | 4.0 | 0.00 | 0.00 | 0.00 | 37 | 1014.5 |
| 20260503224058 | 57 | 322 | 0.0 | 5.0 | 0.00 | 0.00 | 0.00 | 37 | 1014.7 |
| 20260503223558 | 56 | 0 | 1.0 | 5.0 | 0.00 | 0.00 | 0.00 | 40 | 1014.6 |
| 20260503223059 | 57 | 234 | 0.0 | 5.0 | 0.00 | 0.00 | 0.00 | 40 | 1015.0 |
| 20260503222559 | 57 | 306 | 2.0 | 10.0 | 0.00 | 0.00 | 0.00 | 38 | 1014.9 |
| 20260503222058 | 57 | 239 | 2.0 | 13.0 | 0.00 | 0.00 | 0.00 | 42 | 1014.8 |
| 20260503221602 | 58 | 324 | 3.0 | 15.0 | 0.00 | 0.00 | 0.00 | 41 | 1014.9 |
| 20260503221101 | 57 | 307 | 5.0 | 15.0 | 0.00 | 0.00 | 0.00 | 42 | 1015.0 |
| 20260503220558 | 58 | 259 | 5.0 | 15.0 | 0.00 | 0.00 | 0.00 | 42 | 1015.2 |
| 20260503220058 | 57 | 276 | 4.0 | 8.0 | 0.00 | 0.00 | 0.00 | 43 | 1015.2 |
| 20260503215558 | 56 | 254 | 1.0 | 6.0 | 0.00 | 0.00 | 0.00 | 45 | 1015.4 |
| 20260503215058 | 55 | 243 | 1.0 | 6.0 | 0.00 | 0.00 | 0.00 | 45 | 1015.5 |
| 20260503214603 | 55 | 265 | 0.0 | 5.0 | 0.00 | 0.00 | 0.00 | 44 | 1015.6 |
| 20260503214058 | 54 | 0 | 0.0 | 11.0 | 0.00 | 0.00 | 0.00 | 43 | 1015.5 |
| 20260503213558 | 53 | 0 | 2.0 | 13.0 | 0.00 | 0.00 | 0.00 | 42 | 1015.5 |
| 20260503213108 | 53 | 57 | 6.0 | 13.0 | 0.00 | 0.00 | 0.00 | 43 | 1015.6 |
| 20260503212559 | 52 | 67 | 1.0 | 8.0 | 0.00 | 0.00 | 0.00 | 44 | 1015.7 |
| 20260503212058 | 51 | 46 | 2.0 | 8.0 | 0.00 | 0.00 | 0.00 | 50 | 1015.5 |
| 20260503211613 | 50 | 337 | 3.0 | 8.0 | 0.00 | 0.00 | 0.00 | 54 | 1015.2 |
| 20260503211058 | 50 | 325 | 2.0 | 10.0 | 0.00 | 0.00 | 0.00 | 61 | 1015.5 |
| 20260503210558 | 49 | 266 | 2.0 | 13.0 | 0.00 | 0.00 | 0.00 | 61 | 1016.1 |
| 20260503210059 | 49 | 239 | 4.0 | 15.0 | 0.00 | 0.00 | 0.00 | 61 | 1016.5 |
| 20260503205558 | 49 | 191 | 6.0 | 15.0 | 0.00 | 0.00 | 0.00 | 61 | 1016.7 |
| 20260503205058 | 50 | 148 | 5.0 | 13.0 | 0.00 | 0.00 | 0.00 | 60 | 1016.9 |
| 20260503204559 | 51 | 219 | 5.0 | 12.0 | 0.00 | 0.00 | 0.00 | 56 | 1016.4 |
| 20260503204057 | 51 | 176 | 6.0 | 12.0 | 0.00 | 0.00 | 0.00 | 53 | 1016.3 |
| 20260503203559 | 52 | 210 | 6.0 | 12.0 | 0.00 | 0.00 | 0.00 | 52 | 1016.4 |
| 20260503203059 | 53 | 180 | 6.0 | 12.0 | 0.00 | 0.00 | 0.00 | 47 | 1016.4 |
| 20260503202559 | 52 | 153 | 1.0 | 13.0 | 0.00 | 0.00 | 0.00 | 48 | 1016.0 |
| 20260503202104 | 52 | 0 | 1.0 | 13.0 | 0.00 | 0.00 | 0.00 | 51 | 1015.8 |
| 20260503201559 | 52 | 154 | 4.0 | 12.0 | 0.00 | 0.00 | 0.00 | 51 | 1016.1 |
| 20260503201058 | 53 | 137 | 2.0 | 12.0 | 0.00 | 0.00 | 0.00 | 51 | 1016.0 |
| 20260503200558 | 53 | 287 | 5.0 | 15.0 | 0.00 | 0.00 | 0.00 | 48 | 1016.0 |
| 20260503200118 | 53 | 178 | 4.0 | 15.0 | 0.00 | 0.00 | 0.00 | 48 | 1016.4 |
| 20260503195558 | 54 | 198 | 4.0 | 16.0 | 0.00 | 0.00 | 0.00 | 46 | 1016.4 |
| 20260503195058 | 55 | 181 | 4.0 | 20.0 | 0.00 | 0.00 | 0.00 | 42 | 1016.4 |
| 20260503194604 | 55 | 139 | 8.0 | 20.0 | 0.00 | 0.00 | 0.00 | 37 | 1016.4 |
| 20260503194058 | 55 | 136 | 10.0 | 21.0 | 0.00 | 0.00 | 0.00 | 37 | 1016.4 |
| 20260503193559 | 55 | 124 | 11.0 | 22.0 | 0.00 | 0.00 | 0.00 | 37 | 1016.4 |
| 20260503193104 | 55 | 119 | 6.0 | 22.0 | 0.00 | 0.00 | 0.00 | 38 | 1016.4 |
| 20260503192558 | 55 | 143 | 13.0 | 28.0 | 0.00 | 0.00 | 0.00 | 38 | 1016.5 |
| 20260503192058 | 56 | 98 | 12.0 | 28.0 | 0.00 | 0.00 | 0.00 | 37 | 1016.4 |
| 20260503191606 | 57 | 150 | 10.0 | 22.0 | 0.00 | 0.00 | 0.00 | 36 | 1016.4 |
| 20260503191059 | 57 | 209 | 10.0 | 22.0 | 0.00 | 0.00 | 0.00 | 35 | 1016.2 |
| 20260503190558 | 57 | 141 | 8.0 | 23.0 | 0.00 | 0.00 | 0.00 | 36 | 1016.0 |
| 20260503190056 | 57 | 142 | 13.0 | 29.0 | 0.00 | 0.00 | 0.00 | 35 | 1016.0 |
| 20260503185558 | 58 | 153 | 14.0 | 29.0 | 0.00 | 0.00 | 0.00 | 34 | 1016.1 |
| 20260503185059 | 59 | 177 | 13.0 | 29.0 | 0.00 | 0.00 | 0.00 | 33 | 1016.1 |
| 20260503184626 | 59 | 132 | 14.0 | 29.0 | 0.00 | 0.00 | 0.00 | 34 | 1016.1 |
| 20260503184059 | 58 | 162 | 11.0 | 23.0 | 0.00 | 0.00 | 0.00 | 34 | 1016.2 |
| 20260503183559 | 58 | 113 | 13.0 | 23.0 | 0.00 | 0.00 | 0.00 | 35 | 1016.2 |
| 20260503183101 | 57 | 141 | 12.0 | 24.0 | 0.00 | 0.00 | 0.00 | 35 | 1016.1 |
| 20260503182602 | 58 | 115 | 12.0 | 24.0 | 0.00 | 0.00 | 0.00 | 35 | 1016.3 |
| 20260503182058 | 58 | 86 | 11.0 | 24.0 | 0.00 | 0.00 | 0.00 | 36 | 1016.3 |
| 20260503181614 | 59 | 91 | 9.0 | 18.0 | 0.00 | 0.00 | 0.00 | 34 | 1016.2 |
| 20260503181101 | 58 | 230 | 8.0 | 19.0 | 0.00 | 0.00 | 0.00 | 36 | 1016.3 |
| 20260503180600 | 58 | 81 | 8.0 | 19.0 | 0.00 | 0.00 | 0.00 | 36 | 1016.4 |
| 20260503180116 | 58 | 150 | 10.0 | 21.0 | 0.00 | 0.00 | 0.00 | 36 | 1016.5 |
| 20260503175557 | 58 | 77 | 9.0 | 23.0 | 0.00 | 0.00 | 0.00 | 35 | 1016.7 |
| 20260503175058 | 57 | 101 | 6.0 | 24.0 | 0.00 | 0.00 | 0.00 | 37 | 1016.8 |
| 20260503174559 | 57 | 136 | 11.0 | 24.0 | 0.00 | 0.00 | 0.00 | 37 | 1016.8 |
| 20260503174058 | 58 | 49 | 8.0 | 21.0 | 0.00 | 0.00 | 0.00 | 36 | 1016.8 |
| 20260503173558 | 58 | 103 | 9.0 | 21.0 | 0.00 | 0.00 | 0.00 | 36 | 1016.8 |